Location: Mansoura
(31.0409°N, 31.3785°E)
Time: 07:03:39
(UTC+03:00)

Hubble Space Telescope - Visible Passes

Search period start: 18 September 2024 00:00
Search period end: 28 September 2024 00:00
Orbit: 505 x 509 km, 28.5° (Epoch: 17 September)

Date Brightness Start Highest point End Pass type
(mag) Time Alt. Az. Time Alt. Az. Time Alt. Az.
25 Sep 3.2 05:06:09 10° S 05:07:17 11° SSE 05:08:33 10° SE visible
26 Sep 3.2 04:46:36 13° SSE 04:46:36 13° SSE 04:48:03 10° SE visible
27 Sep 3.6 04:26:58 11° SE 04:26:58 11° SE 04:27:22 10° ESE visible
27 Sep 1.6 06:01:39 11° SW 06:05:13 38° SSE 06:08:54 10° E visible
